Weather History for Athens, OH

Change the Weather History Date:

Tuesday, April 1, 2014

  Actual Average (KPKB) Record (KPKB)
Temperature  
Mean Temperature 56 °F 49 °F  
Max Temperature 77 °F 61 °F 87 °F (1974)
Min Temperature 34 °F 38 °F 15 °F (1923)
Degree Days  
Heating Degree Days 10 16  
Month to date heating degree days 16  
Since 1 July heating degree days 4477  
Cooling Degree Days 0 0  
Month to date cooling degree days 0  
Year to date cooling degree days 3  
Growing Degree Days 6 (Base 50)    
Moisture  
Dew Point 32 °F    
Average Humidity 44    
Maximum Humidity 87    
Minimum Humidity 16    
Precipitation  
Precipitation 0.00 in 0.12 in 0.91 in (2005)
Month to date precipitation 0.12  
Year to date precipitation 9.50  
Sea Level Pressure  
Sea Level Pressure 29.98 in    
Wind  
Wind Speed 6 mph (WSW)    
Max Wind Speed 32 mph    
Max Gust Speed 37 mph    
Visibility 10 miles    
Events      
T = Trace of Precipitation, MM = Missing Value Source: NWS Daily Summary

Daily Weather History Graph

Daily Weather History Graph

Search for Another Location

Airport:

Trip Planner

Search our weather history database for the weather conditions in past years. The results will help you decide how hot, cold, wet, or windy it might be!

Date:

Astronomy

Apr. 01, 2014 Rise Set
Actual Time 7:13 AM EDT 7:52 PM EDT
Civil Twilight 6:46 AM EDT 8:19 PM EDT
Nautical Twilight 6:14 AM EDT 8:51 PM EDT
Astronomical Twilight 5:41 AM EDT 9:24 PM EDT
Moon 8:16 AM EDT (4/1) 10:13 PM EDT (4/1)
Length of Visible Light 13h 33m
Length of Day
12h 39m
Waxing Crescent, 4% of the Moon is Illuminated
Apr 1
Waxing Crescent
Apr 7
First Quarter
Apr 15
Full
Apr 22
Last Quarter
Apr 29
New

Hourly Weather History & Observations

Time (EDT) Temp. Windchill Dew Point Humidity Pressure Visibility Wind Dir Wind Speed Gust Speed Precip Events Conditions
12:15 AM 38.3 °F - 31.8 °F 77% 30.05 in 10.0 mi Calm Calm - N/A   Clear
12:35 AM 37.4 °F - 30.2 °F 75% 30.04 in 10.0 mi Calm Calm - N/A   Clear
12:55 AM 36.7 °F - 29.7 °F 76% 30.04 in 10.0 mi Calm Calm - N/A   Clear
1:15 AM 34.7 °F 31.8 °F 31.1 °F 87% 30.05 in 10.0 mi West 3.5 mph - N/A   Clear
1:35 AM 35.2 °F - 31.6 °F 87% 30.04 in 10.0 mi Calm Calm - N/A   Clear
1:55 AM 36.1 °F - 30.7 °F 81% 30.03 in 10.0 mi Calm Calm - N/A   Clear
2:15 AM 34.9 °F - 31.5 °F 87% 30.03 in 10.0 mi Calm Calm - N/A   Clear
2:35 AM 35.8 °F - 31.1 °F 83% 30.03 in 10.0 mi Calm Calm - N/A   Clear
2:55 AM 36.1 °F - 31.6 °F 84% 30.02 in 10.0 mi Calm Calm - N/A   Clear
3:15 AM 36.5 °F - 31.8 °F 83% 30.02 in 10.0 mi Calm Calm - N/A   Clear
3:35 AM 36.7 °F - 31.8 °F 83% 30.02 in 10.0 mi Calm Calm - N/A   Clear
3:55 AM 37.6 °F - 32.0 °F 80% 30.01 in 10.0 mi Calm Calm - N/A   Clear
4:15 AM 37.9 °F - 32.4 °F 80% 30.01 in 10.0 mi Calm Calm - N/A   Clear
4:35 AM 37.9 °F - 32.9 °F 82% 30.00 in 10.0 mi Calm Calm - N/A   Clear
4:55 AM 38.7 °F - 33.3 °F 81% 30.01 in 10.0 mi Calm Calm - N/A   Scattered Clouds
5:15 AM 38.7 °F 36.3 °F 32.9 °F 80% 30.01 in 10.0 mi West 3.5 mph - N/A   Mostly Cloudy
5:35 AM 39.2 °F - 33.1 °F 79% 30.01 in 10.0 mi Calm Calm - N/A   Scattered Clouds
5:55 AM 39.9 °F - 32.5 °F 75% 30.02 in 10.0 mi Calm Calm - N/A   Mostly Cloudy
6:15 AM 40.1 °F 38.0 °F 33.8 °F 78% 30.02 in 10.0 mi West 3.5 mph - N/A   Mostly Cloudy
6:35 AM 42.6 °F 40.9 °F 33.3 °F 69% 30.03 in 10.0 mi WSW 3.5 mph - N/A   Mostly Cloudy
6:55 AM 42.8 °F - 33.3 °F 69% 30.02 in 10.0 mi Calm Calm - N/A   Light Drizzle
7:15 AM 44.8 °F 42.4 °F 32.0 °F 61% 30.01 in 10.0 mi South 4.6 mph - N/A   Overcast
7:35 AM 44.6 °F - 33.4 °F 65% 30.00 in 10.0 mi Calm Calm - N/A   Overcast
7:55 AM 44.4 °F - 34.3 °F 68% 30.00 in 10.0 mi Calm Calm - N/A   Overcast
8:15 AM 46.6 °F - 34.5 °F 63% 30.00 in 10.0 mi South 3.5 mph - N/A   Overcast
8:35 AM 47.1 °F - 34.3 °F 61% 30.00 in 10.0 mi SSE 6.9 mph - N/A   Overcast
8:55 AM 50.9 °F - 32.0 °F 48% 29.99 in 10.0 mi SSE 8.1 mph - N/A   Overcast
9:15 AM 51.4 °F - 32.5 °F 49% 29.99 in 10.0 mi South 6.9 mph - N/A   Scattered Clouds
9:35 AM 55.0 °F - 34.0 °F 45% 29.98 in 10.0 mi South 6.9 mph - N/A   Scattered Clouds
9:55 AM 57.2 °F - 35.6 °F 44% 29.98 in 10.0 mi South 9.2 mph 16.1 mph N/A   Scattered Clouds
10:15 AM 60.8 °F - 37.4 °F 42% 29.98 in 10.0 mi South 10.4 mph 18.4 mph N/A   Scattered Clouds
10:35 AM 62.6 °F - 37.2 °F 39% 29.98 in 10.0 mi SSW 11.5 mph 24.2 mph N/A   Clear
10:55 AM 64.6 °F - 36.3 °F 35% 29.97 in 10.0 mi SSW 16.1 mph 23.0 mph N/A   Clear
11:15 AM 66.6 °F - 36.5 °F 33% 29.97 in 10.0 mi South 15.0 mph 18.4 mph N/A   Clear
11:35 AM 68.5 °F - 36.9 °F 31% 29.96 in 10.0 mi SW 13.8 mph 23.0 mph N/A   Clear
11:55 AM 70.5 °F - 38.5 °F 31% 29.95 in 10.0 mi SW 10.4 mph 20.7 mph N/A   Clear
12:15 PM 70.7 °F - 38.8 °F 31% 29.95 in 10.0 mi SSW 13.8 mph 25.3 mph N/A   Clear
12:35 PM 72.1 °F - 36.5 °F 27% 29.94 in 10.0 mi SW 13.8 mph 23.0 mph N/A   Clear
12:55 PM 72.0 °F - 36.0 °F 27% 29.93 in 10.0 mi WSW 17.3 mph 29.9 mph N/A   Clear
1:15 PM 72.7 °F - 36.3 °F 27% 29.93 in 10.0 mi WSW 19.6 mph 29.9 mph N/A   Clear
1:35 PM 73.9 °F - 36.1 °F 25% 29.92 in 10.0 mi WSW 19.6 mph 24.2 mph N/A   Clear
1:55 PM 75.4 °F - 33.6 °F 22% 29.91 in 10.0 mi SW 21.9 mph 27.6 mph N/A   Clear
2:15 PM 75.7 °F - 30.4 °F 19% 29.91 in 10.0 mi WSW 21.9 mph 33.4 mph N/A   Clear
2:35 PM 76.6 °F - 30.4 °F 18% 29.91 in 10.0 mi West 25.3 mph 31.1 mph N/A   Clear
2:55 PM 76.6 °F - 29.1 °F 17% 29.91 in 10.0 mi SW 20.7 mph 35.7 mph N/A   Clear
3:15 PM 75.4 °F - 30.7 °F 19% 29.91 in 10.0 mi WSW 32.2 mph 36.8 mph N/A   Clear
3:35 PM 76.1 °F - 29.8 °F 18% 29.91 in 10.0 mi WSW 17.3 mph 31.1 mph N/A   Clear
3:55 PM 75.6 °F - 30.9 °F 19% 29.91 in 10.0 mi WSW 24.2 mph 33.4 mph N/A   Clear
4:15 PM 76.6 °F - 30.2 °F 18% 29.91 in 10.0 mi West 23.0 mph 35.7 mph N/A   Clear
4:35 PM 76.3 °F - 29.7 °F 18% 29.91 in 10.0 mi SW 27.6 mph 32.2 mph N/A   Clear
4:55 PM 76.3 °F - 28.6 °F 17% 29.91 in 10.0 mi West 19.6 mph 34.5 mph N/A   Clear
5:15 PM 77.4 °F - 30.6 °F 18% 29.91 in 10.0 mi West 18.4 mph 21.9 mph N/A   Clear
5:35 PM 76.8 °F - 28.6 °F 17% 29.91 in 10.0 mi WSW 18.4 mph 29.9 mph N/A   Clear
5:55 PM 76.1 °F - 27.7 °F 17% 29.91 in 10.0 mi WSW 18.4 mph 33.4 mph N/A   Clear
6:15 PM 75.6 °F - 28.2 °F 17% 29.92 in 10.0 mi WSW 19.6 mph 28.8 mph N/A   Clear
6:35 PM 75.6 °F - 27.9 °F 17% 29.93 in 10.0 mi WSW 23.0 mph 27.6 mph N/A   Clear
6:55 PM 74.7 °F - 24.8 °F 16% 29.94 in 10.0 mi West 24.2 mph 32.2 mph N/A   Clear
7:15 PM 73.4 °F - 26.6 °F 18% 29.94 in 10.0 mi West 13.8 mph 28.8 mph N/A   Clear
7:35 PM 71.8 °F - 27.7 °F 19% 29.95 in 10.0 mi West 13.8 mph 18.4 mph N/A   Clear
7:55 PM 68.9 °F - 28.8 °F 22% 29.95 in 10.0 mi West 11.5 mph - N/A   Clear
8:15 PM 66.2 °F - 28.8 °F 25% 29.96 in 10.0 mi SW 5.8 mph - N/A   Clear
8:35 PM 64.4 °F - 29.5 °F 27% 29.97 in 10.0 mi WSW 8.1 mph - N/A   Clear
8:55 PM 63.3 °F - 29.5 °F 28% 29.98 in 10.0 mi West 5.8 mph - N/A   Clear
9:15 PM 63.1 °F - 28.4 °F 27% 29.99 in 10.0 mi West 3.5 mph - N/A   Clear
9:35 PM 62.2 °F - 28.4 °F 28% 29.99 in 10.0 mi West 5.8 mph - N/A   Clear
9:55 PM 62.4 °F - 28.4 °F 28% 30.00 in 10.0 mi WNW 4.6 mph - N/A   Clear
10:15 PM 64.2 °F - 26.4 °F 24% 30.00 in 10.0 mi West 5.8 mph - N/A   Clear
10:35 PM 62.1 °F - 28.6 °F 28% 30.01 in 10.0 mi West 4.6 mph - N/A   Scattered Clouds
10:55 PM 61.2 °F - 28.6 °F 29% 30.02 in 10.0 mi West 4.6 mph - N/A   Scattered Clouds
11:15 PM 61.3 °F - 28.0 °F 28% 30.03 in 10.0 mi West 5.8 mph - N/A   Scattered Clouds
11:35 PM 63.0 °F - 25.7 °F 24% 30.06 in 10.0 mi West 8.1 mph - N/A   Mostly Cloudy
11:55 PM 64.2 °F - 22.5 °F 20% 30.05 in 10.0 mi West 5.8 mph - N/A   Overcast